Weather in Kamennoye Zadelye

Russia / Udmurt Republic     57°56′16″N   53°12′53″E
temp.,
°C
wind,
m/s
gust,
m/s
humid.,
%
clouds,
%
prec.,
mm/h
press.,
hPa
HPBL,
m
23 may, mon
mon2301:000wsw2797100 0.0 997306
04:00−1sw389878 0.1 996286
07:00+1sw369294 0.1 997468
10:00+4wsw467789 0.6 9971025
13:00+6sw3566100 0.6 9971338
16:00+6sw3567100 1.1 9981137
19:00+5wsw2479100 0.7 999410
22:00+3wsw1191100 1.0 100023
24 may, tue
tue2401:00+2s129381 0.0 1001121
04:00+1s2597100 0.0 1002175
07:00+3s3793100 0.0 1003526
10:00+5s4681100 0.5 10041006
13:00+7s4768100 0.8 10051341
16:00+7sw477897 1.9 10071037
19:00+8w137215 0.3 1008174
22:00+3ene2288100 0.3 100920
25 may, wed
wed2501:00+2e249259 0.0 100974
04:00+2e2493100 0.0 100866
07:00+7e127235 0.0 1007247
10:00+13nne1150100 0.0 10061298
13:00+14ne2241100 0.0 10052171
16:00+13e3354100 0.1 10051384
19:00+10ene2471100 0.0 1005541
22:00+5e239714 0.0 100554
26 may, thu
thu2601:00+4ese129893 0.0 100441
04:00+5ssw4797100 1.4 1004480
07:00+4ssw3697100 0.3 1005630
10:00+5ssw3589100 0.4 1006646
13:00+5ssw3587100 0.2 1006673
16:00+5sw3493100 0.3 1007601
19:00+5w3997100 1.6 1006902
22:00+6wsw399561 2.1 1007473
27 may, fri
fri2701:00+2ssw28975 0.1 1008169
04:00+2s2998100 0.1 1007208
07:00+6sse3991100 0.0 1005369
10:00+8se51091100 0.9 1002785
13:00+7sse51296100 3.3 1001908
16:00+8sse51296100 3.7 1000782
19:00+9sse41097100 1.7 1000494
22:00+10sse4119798 4.5 1001574